Tracking 19283 objects as of 17-Nov-2018
HD Live streaming from Space Station
objects crossing your sky now

GORIZONT 13

Track GORIZONT 13 now!
GORIZONT 13 is classified as:


NORAD ID: 17083
Int'l Code: 1986-090A
Perigee: 36,730.9 km
Apogee: 36,905.3 km
Inclination: 15.6 °
Period: 1,488.7 minutes
Semi major axis: 43189 km
RCS: 2.5139 m2 (large)
Launch date: November 18, 1986
Source: Commonwealth of Independent States (former USSR) (CIS)
Launch site: TYURATAM MISSILE AND SPACE COMPLEX (TTMTR)
aabbcc
Your satellite tracking list
Your tracking list is empty




NASA's NSSDC Master Catalog

Two Line Element Set (TLE):
1 17083U 86090A   18320.51303792 -.00000106 +00000-0 +00000-0 0  9994
2 17083 015.6437 350.4171 0020195 301.1429 241.0023 00.96725631091859
Source of the keplerian elements: AFSPC